sat.trackr.live / text

‹ back to catalog

STARLINK-5852

NORAD 55933 · 2023-037V

PAYLOAD ACTIVE UNKNOWN

§ Identity

Operator
Country
US
Launch date
2023-03-17
Launch site
AFWTR
Launch vehicle
Mass (kg)
RCS (m²)

Purposes: comms

External: N2YO · Heavens-Above · Gunter

§ Orbital elements

Epoch: 2026-05-25T02:26:40.507872Z

Period
96.11 min
Inclination
69.9999°
Eccentricity
0.0003101
Mean motion
14.98331767 rev/d
Perigee alt
569.9 km
Apogee alt
574.2 km
Semi-major
6,950.2 km
B*
-1.7362e-5
RAAN
91.8937°
Arg perigee
267.3594°
Mean anomaly
92.7210°
Rev number
17,542

§ Raw data

STARLINK-58521 55933U 23037V   26145.10185773 -.00000300  00000+0 -17362-4 0  99972 55933  69.9999  91.8937 0003101 267.3594  92.7210 14.98331767175425

JSON: /api/v1/satellites/55933 · /tle

For live sub-satellite position, see the globe view (requires WebGL).

§ Visibility from observer

Set your observer location to see the next 7 days of passes ≥ 10°. The values pass through the URL so the page stays shareable.

No JS? Fill the form by hand. The geolocation button needs JavaScript.